Home > Weather > Sunrise Manor > Past weeks

Flag for USA Weather for the Past 2 Weeks in Sunrise Manor, Nevada, USA

Now
51 °F

Clear.


Feels Like: 49 °F
Forecast: 55 / 79 °F
Wind: 6 mph from Northeast

Location: Nellis Air Force Base

Current Time: Apr 29, 2016 at 5:54:17 AM

Latest Report: Apr 29, 2016 at 4:58 AM


Visibility: 10 mi

Pressure: 29.83 "Hg (27.90 "Hg at 555m altitude)

Humidity: 88%

Dew Point: 48 °F

Location of Sunrise ManorLocation

Historic Weather in Sunrise Manor — Graph

°F

Sunrise Manor Temperature Yesterday

Maximum temperature yesterday: 65 °F (at 3:58 PM)
Minimum temperature yesterday: 53 °F (at 5:58 AM)
Average temperature yesterday: 58 °F

High & Low Weather Summary for the Past Weeks

 TemperatureHumidityPressure
High91 °F (Apr 22, 1:59 PM)99% (Apr 29, 1:58 AM)30.15 "Hg (Apr 29, 1:58 AM)
Low50 °F (Apr 29, 3:58 AM)5% (Apr 20, 4:58 PM)29.53 "Hg (Apr 25, 1:58 AM)
Average69 °F25%29.80 "Hg
* Reported Apr 14 3:58 AM — Apr 29 3:58 AM, Sunrise Manor, Weather by CustomWeather, © 2016

Note: Actual official high and low records may vary slightly from our data, if they occured in-between our weather recording intervals... More about our weather records

Advertising

Sunrise Manor Weather History for the Previous 24 Hours

Scroll right to see more
 ConditionsComfort  
Time TempWeatherWind HumidityBarometerVisibility
3:58 AM
Fri, Apr 29
50 °FClear.5 mph97%29.82 "Hg10 mi
2:58 AM52 °FClear.6 mph91%29.82 "Hg10 mi
1:58 AM52 °FPassing clouds.6 mph99%29.81 "Hg10 mi
12:58 AM54 °FClear.1 mph93%29.82 "Hg10 mi
11:58 PM
Thu, Apr 28
57 °FPassing clouds.No wind77%29.80 "Hg10 mi
10:58 PM56 °FPassing clouds.No wind84%29.80 "Hg10 mi
9:58 PM57 °FPassing clouds.No wind78%29.80 "Hg10 mi
8:56 PM57 °FLight rain. Passing clouds.6 mph77%29.80 "Hg10 mi
8:00 PM59 °FDrizzle. Partly sunny.10 mph77%29.78 "Hg10 mi
5:58 PM58 °FThundershowers. Passing clouds.12 mph75%29.71 "Hg10 mi
4:56 PM61 °FBroken clouds.18 mph63%29.66 "Hg10 mi
3:58 PM65 °FPassing clouds.10 mph51%29.65 "Hg10 mi
2:58 PM63 °FPassing clouds.7 mph58%29.66 "Hg10 mi
2:00 PM61 °FLight rain. Partly sunny.10 mph68%29.69 "Hg10 mi
12:58 PM62 °FLight rain. Partly sunny.8 mph58%29.65 "Hg6 mi
11:58 AM63 °FPassing clouds.2 mph52%29.65 "Hg10 mi
10:58 AM60 °FScattered clouds.2 mph64%29.64 "Hg10 mi
10:03 AM57 °FLight rain. Cloudy.6 mph77%29.67 "Hg9 mi
10:00 AM57 °FLight rain. More clouds than sun.6 mph72%29.67 "Hg9 mi
8:58 AM56 °FPassing clouds.No wind70%29.62 "Hg10 mi
7:58 AM54 °FBroken clouds.8 mph77%29.61 "Hg10 mi
6:58 AM53 °FBroken clouds.8 mph80%29.59 "Hg10 mi
5:58 AM53 °FPartly cloudy.13 mph87%29.58 "Hg10 mi
5:01 AM55 °FOvercast.6 mph72%29.61 "Hg10 mi
Weather by CustomWeather, © 2016

See weather overviewHow to use our weather pages